Tracking 19817 objects as of 19-Aug-2019
HD Live streaming from Space Station
objects crossing your sky now

COSMOS 1823 DEB

Track COSMOS 1823 DEB now!
10-day predictions


NORAD ID: 18758
Int'l Code: 1987-020AK
Perigee: 1,479.8 km
Apogee: 1,565.9 km
Inclination: 73.6 °
Period: 116.3 minutes
Semi major axis: 7893 km
RCS: 0.06 m2 (small)
Launch date: February 20, 1987
Source: Commonwealth of Independent States (former USSR) (CIS)
Launch site: PLESETSK MISSILE AND SPACE COMPLEX (PKMTR)

Note: This is SATELLITE DEBRIS
aabbcc
Your satellite tracking list
Your tracking list is empty




NASA's NSSDC Master Catalog

Two Line Element Set (TLE):
1 18758U 87020AK  19230.55361507 -.00000018 +00000-0 -45301-5 0  9992
2 18758 073.6249 279.4103 0054571 305.9435 208.8944 12.37855386429489
Source of the keplerian elements: AFSPC